Tracking 30510 objects as of 22-May-2025
HD Live streaming from Space Station
objects crossing your sky now

LEMUR 2 FURIAUS

Track LEMUR 2 FURIAUS now!
10-day predictions
LEMUR 2 FURIAUS is classified as:


NORAD ID: 42840
Int'l Code: 2017-042R
Perigee: 517.2 km
Apogee: 530.6 km
Inclination: 97.4 °
Period: 95.0 minutes
Semi major axis: 6894 km
RCS: Unknown
Launch date: July 14, 2017
Source: United States (US)
Launch site: TYURATAM MISSILE AND SPACE COMPLEX (TTMTR)
Your satellite tracking list
Your tracking list is empty




NASA's NSSDC Master Catalog

Two Line Element Set (TLE):
1 42840U 17042R   25141.46651622  .00009994  00000-0  51701-3 0  9995
2 42840  97.3673 322.5819 0009727   7.9894 352.1492 15.16396039428617
Source of the keplerian elements: AFSPC